Date String (YYYY-MM-DD hh:mm:ss) UTC,Instrument flags,absolute air pressure of the measurement (hPa),sample flow rate (lpm),inlet stack bypass flow (lpm),air temperature of the measurement (°C),ambient temperature measured by the external sensor (°C),aerosol sample conditioner tube jacket temperature (°C),OPC LED temperature (°C),internal box temperature (°C),relative humidity of the measurement (%),span deviation,mass concentration of particles derived from Lorenz-Mie calculation of OPC scattering (μg/m³),mass concentration of particles derived from Lorenz-Mie calculation of OPC scattering (μg/m³),mass concentration of particles derived from Lorenz-Mie calculation of OPC scattering (μg/m³)
DateTimeUTC,F1_M11,P_M11,Q1_M11,Q2_M11,T1_M11,T2_M11,T3_M11,T4_M11,T5_M11,U1_M11,ZSPAN_M11,X0_M11,X2_M11,X1_M11
2023-11-24 01:00:00,SystemResetWarning,0831.1,5.00,000.00,020.6,019.8,000.0,029.0,021.8,17.9,0000.0,0011.33,0004.85,0004.06
2023-11-24 01:01:00,SystemResetWarning,0831.1,5.01,000.00,020.6,019.8,000.0,029.0,021.9,17.9,0000.0,0011.50,0004.91,0004.05
2023-11-24 01:02:00,SystemResetWarning,0831.2,5.01,000.00,020.6,019.8,000.0,029.0,021.8,17.9,0000.0,0011.66,0004.96,0004.05
2023-11-24 01:03:00,SystemResetWarning,0831.1,5.00,000.00,020.6,019.8,000.0,029.0,021.8,18.0,0000.0,0011.63,0004.97,0004.04
2023-11-24 01:04:00,SystemResetWarning,0831.1,4.99,000.00,020.6,019.8,000.0,029.0,021.8,18.1,0000.0,0011.76,0004.97,0004.03
2023-11-24 01:05:00,SystemResetWarning,0831.1,4.99,000.00,020.6,019.8,000.0,029.0,021.9,18.1,0000.0,0011.74,0005.00,0004.01
2023-11-24 01:06:00,SystemResetWarning,0831.2,5.01,000.00,020.6,019.8,000.0,029.0,021.9,18.1,0000.0,0012.18,0005.02,0004.01
2023-11-24 01:07:00,SystemResetWarning,0831.3,5.00,000.00,020.6,019.8,000.0,029.0,021.9,18.2,0000.0,0011.92,0005.00,0004.01
2023-11-24 01:08:00,SystemResetWarning,0831.2,5.00,000.00,020.6,019.8,000.0,029.0,021.8,18.2,0000.0,0011.90,0004.96,0004.00
2023-11-24 01:09:00,SystemResetWarning,0831.3,5.01,000.00,020.6,019.8,000.0,029.0,021.9,18.2,0000.0,0012.10,0004.98,0004.00
2023-11-24 01:10:00,SystemResetWarning,0831.3,5.00,000.00,020.6,019.8,000.0,029.0,021.8,18.3,0000.0,0012.10,0004.94,0004.01
2023-11-24 01:11:00,SystemResetWarning,0831.3,5.00,000.00,020.6,019.8,000.0,029.0,021.8,18.2,0000.0,0012.06,0004.94,0004.01
2023-11-24 01:12:00,SystemResetWarning,0831.3,5.00,000.00,020.6,019.8,000.0,029.0,021.8,18.1,0000.0,0012.36,0004.91,0004.02
2023-11-24 01:13:00,SystemResetWarning,0831.4,4.99,000.00,020.6,019.8,000.0,029.0,021.8,17.9,0000.0,0011.91,0004.86,0004.03
2023-11-24 01:14:00,SystemResetWarning,0831.3,5.00,000.00,020.6,019.7,000.0,028.9,021.8,17.5,0000.0,0011.42,0004.86,0004.05
2023-11-24 01:15:00,SystemResetWarning,0831.4,5.00,000.00,020.6,019.7,000.0,028.9,021.8,17.0,0000.0,0011.07,0004.91,0004.07
2023-11-24 01:16:00,SystemResetWarning,0831.4,5.00,000.00,020.6,019.7,000.0,028.9,021.8,16.8,0000.0,0010.89,0004.89,0004.09
2023-11-24 01:17:00,SystemResetWarning,0831.4,5.00,000.00,020.6,019.7,000.0,028.9,021.8,16.7,0000.0,0010.55,0004.89,0004.11
2023-11-24 01:18:00,SystemResetWarning,0831.4,5.00,000.00,020.6,019.7,000.0,028.9,021.8,16.7,0000.0,0010.75,0004.93,0004.13
2023-11-24 01:19:00,SystemResetWarning,0831.4,5.00,000.00,020.6,019.6,000.0,028.9,021.8,16.9,0000.0,0011.31,0004.95,0004.16
2023-11-24 01:20:00,SystemResetWarning,0831.4,5.00,000.00,020.5,019.6,000.0,028.9,021.8,17.0,0000.0,0011.00,0004.89,0004.16
2023-11-24 01:21:00,SystemResetWarning,0831.4,4.99,000.00,020.5,019.6,000.0,028.9,021.8,17.0,0000.0,0010.89,0004.91,0004.16
2023-11-24 01:22:00,SystemResetWarning,0831.4,5.00,000.00,020.5,019.6,000.0,028.9,021.8,17.0,0000.0,0010.82,0004.90,0004.17
2023-11-24 01:23:00,SystemResetWarning,0831.4,4.99,000.00,020.5,019.6,000.0,028.9,021.7,17.0,0000.0,0010.46,0004.90,0004.17
2023-11-24 01:24:00,SystemResetWarning,0831.5,5.00,000.00,020.5,019.5,000.0,028.9,021.7,17.1,0000.0,0011.12,0004.93,0004.17
2023-11-24 01:25:00,SystemResetWarning,0831.5,5.01,000.00,020.5,019.5,000.0,028.9,021.7,17.3,0000.0,0011.08,0004.92,0004.18
2023-11-24 01:26:00,SystemResetWarning,0831.4,5.00,000.00,020.5,019.5,000.0,028.9,021.7,17.3,0000.0,0011.04,0004.91,0004.18
2023-11-24 01:27:00,SystemResetWarning,0831.5,5.00,000.00,020.5,019.5,000.0,028.9,021.7,17.3,0000.0,0011.11,0004.94,0004.18
2023-11-24 01:28:00,SystemResetWarning,0831.5,5.00,000.00,020.4,019.5,000.0,028.9,021.6,17.3,0000.0,0010.86,0004.94,0004.19
2023-11-24 01:29:00,SystemResetWarning,0831.5,5.00,000.00,020.4,019.5,000.0,028.8,021.6,17.4,0000.0,0010.90,0004.95,0004.20
2023-11-24 01:30:00,SystemResetWarning,0831.6,4.99,000.00,020.4,019.5,000.0,028.8,021.6,17.4,0000.0,0010.37,0005.01,0004.21
2023-11-24 01:31:00,SystemResetWarning,0831.6,5.00,000.00,020.4,019.4,000.0,028.8,021.6,17.5,0000.0,0010.65,0005.09,0004.23
2023-11-24 01:32:00,SystemResetWarning,0831.6,5.00,000.00,020.4,019.4,000.0,028.8,021.6,17.6,0000.0,0010.62,0005.13,0004.26
2023-11-24 01:33:00,SystemResetWarning,0831.6,5.00,000.00,020.4,019.4,000.0,028.8,021.6,17.7,0000.0,0010.97,0005.20,0004.29
2023-11-24 01:34:00,SystemResetWarning,0831.6,5.00,000.00,020.4,019.4,000.0,028.8,021.6,17.7,0000.0,0010.75,0005.24,0004.32
2023-11-24 01:35:00,SystemResetWarning,0831.6,5.00,000.00,020.3,019.4,000.0,028.8,021.6,17.7,0000.0,0010.73,0005.32,0004.34
2023-11-24 01:36:00,SystemResetWarning,0831.6,5.01,000.00,020.3,019.4,000.0,028.8,021.5,17.7,0000.0,0010.80,0005.34,0004.37
2023-11-24 01:37:00,SystemResetWarning,0831.6,4.99,000.00,020.3,019.4,000.0,028.8,021.5,17.7,0000.0,0010.78,0005.34,0004.40
2023-11-24 01:38:00,SystemResetWarning,0831.7,5.00,000.00,020.3,019.4,000.0,028.7,021.5,17.7,0000.0,0010.91,0005.40,0004.43
2023-11-24 01:39:00,SystemResetWarning,0831.7,5.00,000.00,020.3,019.3,000.0,028.7,021.5,17.8,0000.0,0011.12,0005.44,0004.46
2023-11-24 01:40:00,SystemResetWarning,0831.7,5.00,000.00,020.3,019.3,000.0,028.7,021.5,17.9,0000.0,0011.41,0005.44,0004.48
2023-11-24 01:41:00,SystemResetWarning,0832.0,5.00,000.00,020.3,019.3,000.0,028.7,021.4,18.0,0000.0,0011.92,0005.45,0004.51
2023-11-24 01:42:00,SystemResetWarning,0832.1,4.99,000.00,020.3,019.3,000.0,028.7,021.5,18.0,0000.0,0011.95,0005.46,0004.54
2023-11-24 01:43:00,SystemResetWarning,0832.0,5.01,000.00,020.2,019.3,000.0,028.7,021.5,18.1,0001.0,0011.89,0005.47,0004.56
2023-11-24 01:44:00,SystemResetWarning,0831.8,5.00,000.00,020.2,019.3,000.0,028.7,021.4,18.1,0000.0,0011.43,0005.45,0004.57
2023-11-24 01:45:00,SystemResetWarning,0831.8,5.00,000.00,020.2,019.3,000.0,028.7,021.4,18.1,0000.0,0011.67,0005.45,0004.59
2023-11-24 01:46:00,SystemResetWarning,0831.9,5.01,000.00,020.2,019.3,000.0,028.7,021.4,18.2,0000.0,0011.24,0005.43,0004.61
2023-11-24 01:47:00,SystemResetWarning,0831.9,5.00,000.00,020.2,019.3,000.0,028.6,021.4,18.2,0000.0,0011.03,0005.43,0004.63
2023-11-24 01:48:00,SystemResetWarning,0831.9,4.99,000.00,020.2,019.3,000.0,028.6,021.5,18.2,0000.0,0011.52,0005.48,0004.63
2023-11-24 01:49:00,SystemResetWarning,0831.9,4.99,000.00,020.2,019.3,000.0,028.6,021.4,18.2,0000.0,0012.01,0005.45,0004.63
2023-11-24 01:50:00,SystemResetWarning,0831.9,5.00,000.00,020.2,019.3,000.0,028.6,021.4,18.2,0000.0,0012.15,0005.44,0004.63
2023-11-24 01:51:00,SystemResetWarning,0831.8,5.00,000.00,020.2,019.3,000.0,028.6,021.4,18.2,0000.0,0011.67,0005.44,0004.64
2023-11-24 01:52:00,SystemResetWarning,0831.9,5.00,000.00,020.2,019.3,000.0,028.6,021.4,18.2,0000.0,0011.33,0005.46,0004.65
2023-11-24 01:53:00,SystemResetWarning,0831.8,5.00,000.00,020.2,019.3,000.0,028.6,021.3,18.2,0000.0,0011.32,0005.44,0004.66
2023-11-24 01:54:00,SystemResetWarning,0831.9,5.01,000.00,020.2,019.3,000.0,028.6,021.3,18.2,0000.0,0011.26,0005.42,0004.66
2023-11-24 01:55:00,SystemResetWarning,0831.9,5.01,000.00,020.1,019.2,000.0,028.6,021.3,18.1,0000.0,0011.35,0005.45,0004.68
2023-11-24 01:56:00,SystemResetWarning,0831.9,4.99,000.00,020.1,019.2,000.0,028.6,021.3,18.2,0000.0,0011.10,0005.47,0004.70
2023-11-24 01:57:00,SystemResetWarning,0831.9,4.99,000.00,020.1,019.2,000.0,028.6,021.3,18.2,0000.0,0011.33,0005.50,0004.71
2023-11-24 01:58:00,SystemResetWarning,0831.9,5.00,000.00,020.1,019.2,000.0,028.6,021.3,18.2,0000.0,0011.87,0005.54,0004.73
2023-11-24 01:59:00,SystemResetWarning,0832.0,5.00,000.00,020.1,019.2,000.0,028.5,021.3,18.2,0000.0,0011.63,0005.52,0004.73
